{"data":{"norad_id":37264,"intl_designator":"2010-070A","name":"HISPASAT 30W-5","alt_names":[],"object_type":"PAYLOAD","status":"ACTIVE","operator":null,"country":"SPN","launch_date":"2010-12-29","launch_site_code":"FRGUI","launch_vehicle":null,"mission":null,"orbit_class":"UNKNOWN","rcs_meters":7.0794,"size_class":null,"mass_kg":null,"dimensions":null,"purposes":["comms"],"wikipedia_slug":null,"has_3d_model":false,"image_url":null,"decayed_at":null,"tle_current":{"epoch":"2026-05-25T04:42:03.573216Z","epoch_age_seconds":54759,"freshness":"FRESH","line1":"1 37264U 10070A   26145.19587469 -.00000218  00000+0  00000+0 0  9997","line2":"2 37264   0.0674 102.3304 0004753 343.4913 197.4824  1.00270873 52954","mean_motion":1.00270873,"eccentricity":0.0004753,"inclination_deg":0.0674,"raan_deg":102.3304,"arg_perigee_deg":343.4913,"mean_anomaly_deg":197.4824,"bstar":0,"rev_number":5295,"period_min":1436.1099658522,"perigee_km":35766.809611215,"apogee_km":35806.891648456,"semimajor_km":42164.987629835,"source":"CELESTRAK","updated_at":"2026-05-25T13:38:13.898314Z"}}}